Alexander City, AL

1:42 PM CDT on July 25, 2016 (GMT -0500)
Russell

Weather History for KALX - May, 2013

Change the Weather History Date:

Friday, May 3, 2013

  Actual Average (KAUO) Record (KAUO)
Temperature  
Mean Temperature 69 °F -  
Max Temperature 75 °F - 89 °F (1959)
Min Temperature 63 °F - 39 °F (1961)
Cooling Degree Days 4    
Month to date cooling degree days  
Year to date cooling degree days  
Growing Degree Days 19 (Base 50)    
Moisture  
Dew Point 59 °F    
Average Humidity 72    
Maximum Humidity 85    
Minimum Humidity 60    
Precipitation  
Precipitation 0.04 in - 8.43 in (2007)
Month to date precipitation  
Year to date precipitation  
Sea Level Pressure  
Sea Level Pressure 29.96 in    
Wind  
Wind Speed 8 mph (East)    
Max Wind Speed 17 mph    
Max Gust Speed 28 mph    
Visibility 10 miles    
Events Rain    
T = Trace of Precipitation, MM = Missing Value Source: NWS Daily Summary

Daily Weather History Graph

Daily Weather History Graph

Search for Another Location

Airport or City:

Trip Planner

Search our weather history database for the weather conditions in past years. The results will help you decide how hot, cold, wet, or windy it might be!

Date:

Astronomy

May. 03, 2013 Rise Set
Actual Time 5:54 AM CDT 7:27 PM CDT
Civil Twilight 5:27 AM CDT 7:54 PM CDT
Nautical Twilight 4:56 AM CDT 8:25 PM CDT
Astronomical Twilight 4:23 AM CDT 8:59 PM CDT
Moon 1:58 AM CDT (5/3) 1:40 PM CDT (5/3)
Length of Visible Light 14h 26m
Length of Day
13h 33m
Last Quarter, 37% of the Moon is Illuminated
May 3
Last Quarter
May 9
New
May 17
First Quarter
May 24
Full
May 31
Last Quarter

Hourly Weather History & Observations

Time (CDT) Temp. Dew Point Humidity Pressure Visibility Wind Dir Wind Speed Gust Speed Precip Events Conditions
12:15 AM 70.7 °F 61.7 °F 73% 30.05 in 10.0 mi East 6.9 mph - N/A   Overcast
12:35 AM 70.7 °F 61.7 °F 73% 30.04 in 10.0 mi East 8.1 mph - N/A   Overcast
12:55 AM 70.7 °F 61.9 °F 74% 30.04 in 10.0 mi East 5.8 mph - N/A   Overcast
1:15 AM 68.0 °F 59.5 °F 74% 30.03 in 10.0 mi East 4.6 mph - N/A   Overcast
1:35 AM 68.0 °F 59.5 °F 74% 30.03 in 10.0 mi East 4.6 mph - N/A   Overcast
1:55 AM 68.0 °F 59.5 °F 74% 30.02 in 10.0 mi East 4.6 mph - N/A   Mostly Cloudy
2:15 AM 68.0 °F 59.9 °F 75% 30.01 in 10.0 mi East 5.8 mph - N/A   Mostly Cloudy
2:35 AM 68.0 °F 59.9 °F 75% 30.01 in 10.0 mi East 4.6 mph - N/A   Overcast
3:15 AM 68.0 °F 59.5 °F 74% 30.00 in 10.0 mi East 6.9 mph - N/A   Overcast
3:35 AM 68.0 °F 59.7 °F 75% 30.00 in 10.0 mi ENE 6.9 mph - N/A   Overcast
3:55 AM 68.0 °F 59.9 °F 75% 30.00 in 10.0 mi East 3.5 mph - N/A   Overcast
4:15 AM 66.9 °F 59.0 °F 76% 29.99 in 10.0 mi ENE 5.8 mph - N/A   Overcast
4:35 AM 65.5 °F 57.7 °F 76% 29.99 in 10.0 mi ENE 3.5 mph - N/A   Overcast
4:55 AM 65.5 °F 58.3 °F 77% 29.99 in 10.0 mi Calm Calm - N/A   Scattered Clouds
5:15 AM 65.5 °F 58.6 °F 79% 29.99 in 10.0 mi Calm Calm - N/A   Scattered Clouds
5:35 AM 65.5 °F 59.0 °F 80% 29.99 in 10.0 mi East 4.6 mph - N/A   Scattered Clouds
5:55 AM 64.9 °F 58.5 °F 79% 29.99 in 10.0 mi East 4.6 mph - N/A   Scattered Clouds
6:15 AM 64.9 °F 58.5 °F 79% 30.00 in 10.0 mi East 4.6 mph - N/A   Scattered Clouds
6:35 AM 64.8 °F 58.3 °F 79% 30.00 in 10.0 mi East 4.6 mph - N/A   Scattered Clouds
6:55 AM 65.5 °F 59.0 °F 80% 30.00 in 10.0 mi East 5.8 mph - N/A   Scattered Clouds
7:15 AM 65.5 °F 58.5 °F 78% 30.00 in 10.0 mi East 5.8 mph - N/A   Clear
7:35 AM 65.7 °F 57.9 °F 76% 30.00 in 10.0 mi East 9.2 mph - N/A   Scattered Clouds
7:55 AM 68.0 °F 59.9 °F 75% 30.00 in 10.0 mi East 4.6 mph - N/A   Mostly Cloudy
8:15 AM 68.0 °F 59.0 °F 73% 30.00 in 10.0 mi East 13.8 mph 18.4 mph N/A   Mostly Cloudy
8:35 AM 70.3 °F 60.4 °F 71% 30.00 in 10.0 mi East 17.3 mph 20.7 mph N/A   Overcast
8:55 AM 70.7 °F 59.4 °F 67% 29.99 in 10.0 mi East 13.8 mph 23.0 mph N/A   Mostly Cloudy
9:15 AM 70.7 °F 58.5 °F 65% 29.99 in 10.0 mi East 13.8 mph 20.7 mph N/A   Scattered Clouds
9:35 AM 70.7 °F 58.3 °F 65% 29.99 in 10.0 mi East 11.5 mph 19.6 mph N/A   Scattered Clouds
9:55 AM 70.7 °F 57.0 °F 62% 29.98 in 10.0 mi East 12.7 mph 23.0 mph N/A   Scattered Clouds
10:15 AM 71.1 °F 57.2 °F 61% 29.99 in 10.0 mi East 11.5 mph 20.7 mph N/A   Scattered Clouds
10:35 AM 70.7 °F 57.4 °F 63% 29.99 in 10.0 mi East 12.7 mph 21.9 mph N/A   Mostly Cloudy
10:55 AM 70.7 °F 57.9 °F 64% 29.98 in 10.0 mi East 10.4 mph 18.4 mph N/A   Mostly Cloudy
11:15 AM 73.0 °F 58.3 °F 60% 29.98 in 10.0 mi East 10.4 mph 23.0 mph N/A   Mostly Cloudy
11:35 AM 73.2 °F 58.5 °F 60% 29.98 in 10.0 mi ESE 13.8 mph 20.7 mph N/A   Scattered Clouds
11:55 AM 70.7 °F 57.4 °F 63% 29.98 in 10.0 mi ESE 9.2 mph 19.6 mph N/A   Mostly Cloudy
12:15 PM 72.7 °F 59.2 °F 62% 29.97 in 10.0 mi East 6.9 mph - N/A   Mostly Cloudy
12:35 PM 72.9 °F 59.5 °F 63% 29.96 in 10.0 mi ESE 12.7 mph 17.3 mph N/A   Scattered Clouds
12:55 PM 70.9 °F 59.2 °F 66% 29.96 in 10.0 mi East 5.8 mph - N/A   Mostly Cloudy
1:15 PM 73.0 °F 59.9 °F 63% 29.96 in 10.0 mi East 6.9 mph 16.1 mph N/A   Mostly Cloudy
1:35 PM 70.7 °F 58.6 °F 66% 29.96 in 10.0 mi ESE 15.0 mph 19.6 mph N/A   Mostly Cloudy
1:55 PM 70.7 °F 59.4 °F 67% 29.96 in 10.0 mi East 8.1 mph - N/A   Mostly Cloudy
2:15 PM 71.4 °F 59.5 °F 66% 29.95 in 10.0 mi ESE 9.2 mph - N/A   Scattered Clouds
2:35 PM 72.1 °F 59.5 °F 64% 29.94 in 10.0 mi ESE 8.1 mph 16.1 mph N/A   Scattered Clouds
2:55 PM 75.6 °F 61.7 °F 62% 29.92 in 10.0 mi ESE 12.7 mph 18.4 mph N/A   Scattered Clouds
3:15 PM 73.0 °F 59.9 °F 63% 29.92 in 10.0 mi ESE 9.2 mph 18.4 mph N/A   Scattered Clouds
3:35 PM 74.7 °F 61.0 °F 62% 29.91 in 10.0 mi East 8.1 mph - N/A   Scattered Clouds
3:55 PM 70.7 °F 58.5 °F 65% 29.91 in 10.0 mi East 15.0 mph 21.9 mph N/A   Mostly Cloudy
4:15 PM 70.7 °F 59.5 °F 68% 29.90 in 10.0 mi ESE 11.5 mph 16.1 mph N/A   Mostly Cloudy
4:35 PM 70.7 °F 59.9 °F 69% 29.90 in 10.0 mi ESE 11.5 mph 17.3 mph N/A   Mostly Cloudy
4:55 PM 70.7 °F 59.0 °F 66% 29.90 in 10.0 mi ESE 11.5 mph 16.1 mph N/A   Mostly Cloudy
5:15 PM 70.7 °F 59.0 °F 66% 29.90 in 10.0 mi ESE 8.1 mph - N/A   Overcast
5:35 PM 70.7 °F 59.0 °F 66% 29.89 in 10.0 mi ESE 8.1 mph 16.1 mph N/A   Mostly Cloudy
5:55 PM 70.7 °F 58.5 °F 65% 29.88 in 10.0 mi ESE 5.8 mph 9.2 mph N/A   Mostly Cloudy
6:15 PM 70.7 °F 59.4 °F 67% 29.89 in 10.0 mi East 12.7 mph 23.0 mph N/A   Overcast
6:35 PM 67.5 °F 61.2 °F 80% 29.90 in 3.0 mi ESE 10.4 mph 27.6 mph 0.01 in Rain Rain
6:55 PM 65.5 °F 60.6 °F 84% 29.90 in 7.0 mi ESE 9.2 mph 20.7 mph 0.01 in   Overcast
7:15 PM 65.5 °F 59.9 °F 82% 29.90 in 10.0 mi ESE 16.1 mph 20.7 mph N/A   Scattered Clouds
7:35 PM 65.5 °F 59.9 °F 82% 29.90 in 10.0 mi ESE 9.2 mph - N/A   Scattered Clouds
7:55 PM 65.5 °F 59.4 °F 81% 29.90 in 10.0 mi ESE 8.1 mph 16.1 mph N/A Rain Light Rain
8:15 PM 65.5 °F 58.3 °F 77% 29.90 in 10.0 mi ESE 8.1 mph - N/A   Drizzle
8:35 PM 65.5 °F 57.6 °F 76% 29.91 in 10.0 mi SE 6.9 mph - N/A   Overcast
8:55 PM 68.0 °F 59.0 °F 73% 29.91 in 10.0 mi ESE 8.1 mph - N/A Rain Light Rain
9:15 PM 65.5 °F 57.6 °F 76% 29.91 in 10.0 mi ESE 9.2 mph - N/A Rain Rain
9:35 PM 65.5 °F 58.5 °F 78% 29.92 in 10.0 mi ESE 8.1 mph - 0.01 in Rain Rain
9:55 PM 63.5 °F 58.1 °F 83% 29.91 in 10.0 mi ESE 6.9 mph - 0.03 in Rain Rain
10:15 PM 63.5 °F 58.3 °F 83% 29.90 in 10.0 mi ESE 11.5 mph - N/A   Mostly Cloudy
10:35 PM 64.2 °F 58.3 °F 81% 29.89 in 10.0 mi ESE 13.8 mph 17.3 mph N/A Rain Light Rain
10:55 PM 64.0 °F 58.5 °F 82% 29.89 in 10.0 mi ESE 9.2 mph - N/A   Overcast
11:15 PM 63.5 °F 58.6 °F 84% 29.88 in 10.0 mi East 9.2 mph - N/A   Mostly Cloudy
11:35 PM 63.5 °F 59.0 °F 85% 29.88 in 10.0 mi East 9.2 mph - N/A   Mostly Cloudy
11:55 PM 63.5 °F 59.0 °F 85% 29.87 in 10.0 mi ESE 9.2 mph 16.1 mph N/A   Overcast